Boca Grande, FL (33921)

8:55 PM EDT on March 27, 2015 (GMT -0400)
Gasparilla Marina | | Change Station
CLOSE
Current Station
Personal Weather Station
Location: Placida, FL
Elevation: 0 ft
Nearby Weather Stations
Active Advisory: Beach Hazard Statement

Elev 0 ft 26.83 °N, 82.26 °W | Updated 14 minutes ago

Rain
Rain
69.8 °F
Feels Like 69.8 °F
N
4.7
Wind Variable Wind from WSW

Today
High -- | Low -- °F
--% Chance of Precip.
Yesterday
High -- | Low -- °F
Precip. -- in
7:25 AM 7:43 PM
First Quarter, 57% visible
Pressure 29.91 in
Visibility 9.0 miles
Clouds Few 1500 ft
Mostly Cloudy 2200 ft
Overcast 5000 ft
Dew Point 68 °F
Humidity 94%
Rainfall 0.57 in
Snow Depth Not available.
UV 0 out of 12
Pollen 5.00 out of 12
Air Quality Not available.
Flu Activity Not available.
SPECI KPGD 280005Z AUTO 23012G17KT 9SM -RA FEW015 BKN022 OVC050 21/19 A2991 RMK AO2 P0001 T02060194

More Conditions Fewer Conditions

Pressure 29.91 in
Visibility 9.0 miles
Clouds Few 1500 ft
Mostly Cloudy 2200 ft
Overcast 5000 ft
Dew Point 68 °F
Humidity 94%
Rainfall 0.57 in
Snow Depth Not available.
UV 0 out of 12
Pollen 5.00 out of 12
Air Quality Not available.
Flu Activity Not available.
SPECI KPGD 280005Z AUTO 23012G17KT 9SM -RA FEW015 BKN022 OVC050 21/19 A2991 RMK AO2 P0001 T02060194

More Conditions Fewer Conditions

10-Day Weather Forecast

Almanac

Astronomy

Mar. 27, 2015 Rise Set
Actual Time
Civil Twilight
Nautical Twilight
Astronomical Twilight
Moon
Length of Visible Light
Length of Day
Tomorrow will be .
, % of the Moon is Illuminated

Today's Extremes

State Highs State Lows

Community

WunderPhotos

Upload Photos

1,808,894 photos uploaded!

WunderBlogs® & News

Nearby

Air Quality

  Air Quality AQ Index Pollutant
Not available.

Snow Depth

Station Depth Elevation

Earthquake Activity

City Distance Mag. Time & Date
Minimum magnitude displayed is 2.5.

Coastal Water Temperatures

Place Temperature

Stations

Nearby Weather Stations

Station Location Temp. Windchill Dew Point Humidity Wind Precip. Elev Updated Type
                   
Beach Hazard Statement
Statement as of 5:14 AM EDT on March 27, 2015

... Beach hazards statement in effect from noon EDT today through
this evening...

The National Weather Service in Tampa Bay Ruskin has issued a
beach hazards statement for a moderate risk of rip currents which
is in effect from noon EDT today through this evening.

* Hazards... moderate risk of rip currents.

* Timing... from noon through this evening.

* Location... area beaches from Pinellas to Lee counties.

Precautionary/preparedness actions...

A moderate risk of rip currents means wind and or wave conditions
support stronger or more frequent rip currents. Always have a
flotation device with you in the water.



Http://www.Weather.Gov/Tampa